Presure
178 176 174 172 180 170 182 152 152 143 131 120 120 137 129 119 99 112 137 111 121 119 163 139 168 147 135 202 140 176 169 170 124 139 115 171 161 127 179 157 159 165 173 187 187 182 194
176 173 162 164 167 164 167 165 159 132 128 129 135 162 122 114 133 106 115 125 123 116 176 182 199 166 190 193 168 152 157 144 169 134 142 162 172 150 141 166 151 166 174 174 188 192 193
174 169 170 182 181 181 162 161 127 126 121 110 135 148 124 138 152 132 102 120 110 112 116 216 180 149 161 115 189 168 179 150 131 152 181 175 140 151 141 181 167 173 176 155 189 192 200
166 168 178 174 185 171 155 170 144 123 115 123 145 125 119 117 135 107 149 142 122 105 114 170 116 145 140 188 184 134 188 189 192 176 140 171 169 126 158 176 167 163 166 178 167 193 188
170 176 172 165 170 164 155 133 181 122 124 116 116 120 104 101 121 98 124 142 119 111 115 106 117 173 146 195 166 143 186 182 166 183 169 145 131 155 155 164 175 171 176 180 168 190 197
166 173 178 179 168 149 142 162 125 126 106 113 119 125 131 149 110 133 125 131 131 106 171 122 174 131 159 162 188 183 188 175 181 118 178 143 155 120 128 172 161 150 176 151 189 189 190
174 180 182 161 170 159 152 118 138 128 118 117 118 130 134 133 121 139 134 132 121 184 132 109 139 156 103 124 190 191 154 189 176 102 184 180 103 174 168 177 165 160 127 189 209 158 176
178 178 161 146 150 161 156 121 119 115 115 125 113 135 139 143 131 118 132 123 151 148 103 103 151 119 112 109 163 180 173 187 182 166 188 137 172 159 121 149 143 177 187 189 191 182 169
163 163 166 173 161 141 135 150 119 119 136 133 100 99 115 112 119 133 180 120 142 165 138 123 115 130 170 166 170 175 194 190 190 159 129 154 108 148 144 173 168 144 200 168 174 133 181
155 176 159 174 162 161 127 137 120 126 126 131 132 121 122 117 124 135 127 122 146 110 162 173 173 133 154 143 119 162 131 190 118 134 176 151 103 130 169 155 133 164 181 175 164 170 163
177 177 176 170 163 194 126 125 104 118 122 132 115 116 105 129 131 112 145 135 118 152 107 162 141 144 111 105 115 161 178 205 190 193 99 136 123 126 179 122 128 189 174 178 188 140 151
176 156 167 154 174 176 135 126 112 112 116 120 109 113 105 121 99 156 132 129 125 163 162 127 114 98 156 132 145 123 166 107 187 170 155 162 129 132 135 133 184 167 173 177 194 174 196
178 169 168 175 166 197 134 126 118 113 125 113 113 105 111 103 123 121 118 114 162 125 158 142 133 167 158 156 158 156 168 157 165 177 185 152 164 172 133 142 186 160 191 180 176 185 198
154 164 161 174 175 154 129 159 120 128 114 103 148 107 123 132 116 114 123 114 128 161 153 99 108 174 110 151 172 168 159 160 174 179 186 127 191 126 155 114 141 158 189 202 166 177 192
176 166 170 155 177 196 186 170 119 112 96 99 113 116 134 115 112 112 111 94 106 155 120 110 169 124 115 154 156 149 162 173 178 192 188 179 144 127 153 171 141 179 198 200 200 205 154
171 176 175 184 188 185 190 188 135 119 118 124 141 133 142 112 116 125 126 151 159 153 113 166 142 165 136 162 149 171 169 167 196 145 154 185 153 137 184 128 182 185 172 178 138 190 174
169 176 177 185 188 185 189 187 184 119 179 157 160 100 114 146 139 167 152 162 130 163 160 169 161 111 163 155 164 156 154 163 172 162 181 172 150 151 184 168 176 147 123 160 186 183 209
177 166 147 173 192 199 195 179 191 186 181 125 124 170 170 160 121 166 162 132 124 111 168 168 168 143 166 167 142 158 173 176 189 191 148 186 184 162 185 150 154 191 190 121 174 207 179
184 180 178 175 173 195 196 192 186 188 183 174 176 172 170 172 158 168 100 164 162 161 158 167 163 159 157 100 160 168 160 196 189 151 179 180 155 164 171 132 173 137 129 173 129 142 202
185 186 181 184 184 184 196 194 181 183 153 176 186 183 182 172 155 147 171 163 160 158 89 161 152 164 162 158 151 178 169 195 183 187 189 179 145 185 172 132 153 173 142 195 190 203 185
176 174 180 189 191 190 193 195 190 181 178 174 171 173 172 168 170 175 173 166 167 159 166 158 164 157 149 162 175 172 170 161 175 170 136 166 147 159 131 166 160 176 179 193 182 193 193
161 162 174 179 96 182 184 173 189 179 178 170 173 172 169 167 171 176 172 160 164 160 144 159 160 159 164 164 164 149 181 173 163 158 138 168 170 177 156 184 198 194 167 171 128 221 128
160 156 162 162 158 176 179 176 177 172 168 170 171 176 168 167 178 167 165 164 161 159 159 159 160 166 167 160 159 175 166 184 148 175 176 161 147 182 156 146 147 174 190 167 146 185 142
177 164 171 143 162 161 161 162 168 171 167 167 170 173 176 171 171 166 156 164 162 155 157 160 152 155 165 153 169 172 137 185 137 180 162 163 147 153 135 124 161 187 195 193 159 153 188
172 174 173 172 169 171 160 168 171 162 161 167 164 155 163 161 162 149 157 150 158 151 140 136 161 170 144 182 175 179 159 171 174 183 146 142 152 159 156 193 138 211 202 168 190 192 177
152 136 155 168 179 183 179 161 163 135 145 162 130 162 153 149 156 161 164 153 158 162 151 183 176 141 176 134 165 171 145 189 135 161 143 186 197 205 140 125 164 177 211 179 118 190 146
172 161 173 127 151 160 125 115 145 120 169 139 125 139 140 177 133 132 142 163 178 187 139 210 183 166 141 172 155 159 131 149 152 144 194 167 153 192 148 157 172 192 126 131 133 244 129
108 154 142 126 114 131 183 169 151 130 146 149 199 150 167 121 162 165 155 162 183 149 129 142 155 131 136 173 134 170 158 181 163 188 183 163 190 154 178 183 126 133 224 224 185 138 120
113 169 135 150 114 118 163 116 176 201 157 121 120 150 127 131 143 161 129 154 199 166 146 177 176 123 171 124 154 153 170 153 183 179 167 156 156 206 150 193 133 171 136 134 134 133 136
Wind_Speed
22 19 16 16 16 15 16 18 16 22 23 23 19 11 9 12 11 11 4 12 15 12 13 9 19 20 10 11 15 18 21 22 30 31 30 38 42 27 49 51 52 62 69 73 75 79 86
20 18 19 17 15 18 18 16 16 24 21 17 12 9 9 15 3 7 8 8 14 13 12 17 13 17 15 15 17 16 22 30 32 32 36 36 45 37 31 59 46 64 72 71 83 85 89
18 16 15 16 15 15 17 17 27 23 22 20 10 11 4 4 4 8 3 10 11 12 13 6 12 8 20 16 19 20 28 28 33 32 38 44 38 44 40 55 64 74 78 53 86 88 89
18 16 14 14 14 14 21 13 19 22 21 15 11 7 8 2 5 11 6 11 15 8 12 12 18 24 25 21 24 25 28 29 30 35 39 43 48 30 54 58 63 64 72 81 74 88 87
18 15 16 19 15 17 20 26 8 20 18 16 11 4 18 14 7 8 6 10 6 9 13 9 10 23 20 21 22 22 29 29 32 36 40 33 33 49 48 58 65 67 76 80 71 92 97
18 16 15 15 18 25 25 17 23 19 18 15 9 6 11 9 11 9 13 17 12 3 16 25 22 30 27 23 28 29 32 34 38 27 43 44 40 34 40 62 59 61 74 59 83 91 96
17 17 16 20 16 22 24 23 22 19 14 11 7 11 12 14 11 13 16 18 22 16 25 13 27 25 13 32 32 33 25 35 38 23 41 41 36 53 56 61 63 65 44 79 81 72 88
17 17 21 26 25 22 20 23 20 17 14 12 9 11 13 12 15 11 14 1 22 13 5 8 23 25 25 25 35 38 30 37 40 40 41 45 51 51 43 55 59 72 80 78 85 88 86
20 20 18 17 20 24 26 18 20 17 18 17 16 11 6 6 11 15 8 12 16 20 18 28 25 28 33 37 42 41 38 39 40 33 44 41 33 54 52 61 70 62 76 81 86 57 95
26 19 21 18 21 22 25 26 20 18 18 19 18 15 15 12 16 21 23 25 23 11 28 22 25 26 34 36 29 46 32 45 30 37 43 39 38 46 66 63 60 74 79 82 67 89 81
20 19 18 19 22 18 27 26 23 21 20 22 13 12 11 20 21 14 14 28 24 32 17 30 27 31 20 20 32 48 51 37 46 41 36 41 41 51 66 47 57 74 81 80 85 64 78
22 28 23 26 19 24 29 29 25 22 20 20 15 12 12 19 9 16 28 29 15 24 27 29 17 19 37 33 39 35 52 30 55 57 43 52 49 53 47 59 78 73 80 79 79 90 89
23 24 24 22 23 24 35 30 25 22 25 19 18 14 14 13 23 24 23 20 24 21 32 27 36 37 42 45 49 50 53 53 55 58 62 51 50 61 58 61 79 73 83 81 81 82 95
33 28 29 22 21 30 33 29 27 30 23 18 24 18 27 29 21 21 27 23 25 31 33 22 22 38 29 46 49 52 56 57 55 58 61 37 58 52 53 48 63 63 86 90 75 86 100
27 30 28 32 24 28 29 30 29 25 14 15 24 25 33 25 23 23 21 13 15 39 26 24 38 35 30 48 51 51 59 63 63 57 61 63 53 46 54 74 65 83 85 90 90 84 75
30 28 29 29 28 29 30 31 39 29 29 34 33 26 24 26 29 34 25 38 36 36 25 41 36 43 37 51 49 56 57 62 52 44 53 65 46 52 80 56 87 90 72 81 52 99 85
34 30 30 30 30 30 33 32 34 31 30 31 31 19 31 39 39 31 31 36 28 38 42 41 45 30 50 54 55 56 57 62 66 64 74 74 46 59 83 79 84 64 38 71 96 96 102
34 38 37 33 34 35 37 32 34 35 34 41 42 31 31 34 28 34 37 38 32 30 41 43 47 41 51 56 50 60 68 71 66 62 48 70 75 62 85 68 53 93 83 39 88 99 96
36 36 36 36 35 34 37 36 34 35 34 34 35 35 35 36 40 37 23 40 40 39 45 43 48 54 57 28 60 64 66 62 68 39 73 64 54 54 78 55 81 59 43 88 49 68 101
39 39 39 37 35 34 36 36 34 36 30 35 34 36 39 40 33 33 42 42 45 46 22 48 55 54 59 62 56 68 66 59 69 70 69 76 39 86 64 46 68 80 70 99 103 97 98
41 40 36 34 35 35 36 37 37 36 36 37 40 41 40 41 42 44 44 43 45 49 50 49 53 59 59 65 72 72 72 60 76 69 34 72 41 69 54 78 69 92 95 101 96 100 99
45 40 38 37 18 36 35 38 36 41 42 40 42 42 43 44 43 45 45 45 47 48 61 55 56 62 66 66 69 61 75 77 57 61 30 78 82 82 70 95 88 91 80 88 41 105 44
44 41 42 40 40 39 40 41 41 42 43 44 45 46 46 49 47 45 44 47 50 54 58 58 61 68 70 68 68 70 72 78 43 71 87 64 49 90 76 47 64 84 99 73 63 93 65
54 50 49 44 48 46 45 46 45 45 45 46 45 47 48 51 50 48 45 51 53 57 61 65 64 68 72 67 69 73 35 77 32 88 64 52 47 67 38 59 75 95 98 99 82 72 100
54 58 53 53 52 53 49 51 51 51 50 51 49 50 49 52 57 53 51 56 59 62 61 61 69 72 59 71 72 75 67 76 88 89 36 36 55 55 46 91 63 94 94 78 93 103 83
43 48 45 43 60 58 61 59 57 57 56 56 61 56 54 57 63 63 61 60 64 68 66 70 73 53 71 40 73 76 51 79 31 76 42 97 98 97 43 53 80 86 102 85 48 97 53
65 55 61 46 53 54 22 18 36 21 64 47 28 48 60 62 55 51 69 67 63 67 48 57 67 70 37 74 60 69 30 53 64 55 89 74 67 89 42 64 86 102 55 57 49 104 47
29 60 44 39 19 37 69 47 37 33 45 41 72 39 45 29 50 62 50 62 67 34 22 63 57 13 23 78 32 90 80 88 80 90 89 92 103 50 98 75 54 59 108 107 85 63 37
39 69 44 72 26 30 53 26 56 73 69 25 27 51 33 35 51 45 31 73 67 50 53 64 67 27 80 44 60 58 89 68 89 86 93 87 79 96 43 109 55 78 60 59 58 48 48
Wind_Direction
185 183 183 179 189 180 192 167 170 160 139 137 127 147 137 120 116 131 55 77 15 34 334 15 337 345 11 337 10 337 335 347 356 331 345 348 348 292 348 352 350 345 340 336 334 339 335
186 184 166 165 173 171 180 175 174 143 138 144 160 184 121 120 283 148 62 340 355 32 332 331 325 346 342 347 354 1 323 334 341 356 331 347 350 350 342 345 348 342 342 341 339 336 337
184 177 176 200 202 202 174 176 151 147 140 143 159 196 122 228 255 283 114 346 76 51 13 1 351 12 334 25 355 340 347 320 338 331 348 352 343 350 349 341 343 341 340 335 338 335 331
172 175 198 191 207 184 173 193 162 150 148 139 191 154 154 182 263 144 297 305 340 115 9 330 347 337 338 359 357 6 345 345 343 344 337 349 348 353 345 344 343 344 344 340 342 335 335
188 195 188 180 186 180 177 163 189 155 150 144 144 148 168 172 223 188 282 310 40 22 345 1 357 4 354 0 346 355 348 343 333 346 348 351 346 344 346 345 344 341 337 338 334 334 334
185 195 201 201 184 181 176 184 162 162 157 154 157 214 240 264 202 275 305 297 308 336 316 333 356 351 349 343 354 350 349 349 347 344 345 337 347 357 353 345 342 342 339 346 336 335 342
199 202 203 186 191 190 191 167 182 170 168 168 157 237 237 240 269 292 289 290 305 355 314 6 352 9 1 348 1 354 333 345 345 342 340 342 338 339 348 338 340 344 338 342 337 346 344
207 205 193 189 191 192 181 175 169 167 169 195 168 230 243 268 260 283 307 282 313 334 348 343 349 349 342 348 348 351 345 343 343 344 337 337 337 339 354 351 344 344 341 344 341 342 345
201 201 207 212 205 194 193 196 176 180 213 217 181 186 265 267 265 287 315 293 326 325 332 313 334 335 344 343 343 346 347 345 340 338 334 350 341 346 341 341 347 350 338 344 342 345 343
200 217 204 219 213 207 189 204 185 200 208 219 230 234 254 272 272 287 290 301 310 331 330 344 338 334 341 329 340 342 351 343 334 336 334 336 337 348 344 342 350 346 340 345 344 342 347
217 219 217 220 219 225 196 198 190 197 208 224 218 237 208 265 280 286 293 297 306 316 315 327 325 333 331 339 335 339 345 335 337 331 341 341 332 335 335 354 352 334 344 344 341 358 351
218 208 215 214 230 218 208 205 192 199 208 224 210 234 223 270 246 279 291 293 302 310 316 317 315 329 332 330 334 340 336 351 338 340 332 334 332 337 344 339 335 346 343 340 345 342 340
222 215 218 230 229 226 214 212 205 203 227 218 227 226 249 240 274 281 288 297 303 303 316 320 305 328 327 330 331 333 335 337 337 336 334 332 329 336 334 339 331 338 337 342 346 341 341
211 215 218 233 237 218 218 233 213 229 219 223 267 237 259 265 267 275 282 288 298 310 313 310 309 329 319 327 335 331 331 333 333 333 330 331 327 338 351 340 337 351 338 341 348 349 345
224 222 227 223 236 234 232 231 219 222 245 246 238 248 263 256 257 263 269 290 317 307 300 299 319 307 330 322 324 327 326 332 334 327 327 329 327 338 338 331 332 343 340 341 345 345 348
223 230 233 237 237 235 235 237 235 232 240 247 258 254 267 254 261 272 275 290 299 300 294 311 311 318 314 318 322 328 327 329 325 333 338 325 331 325 328 338 335 335 354 345 1 346 350
225 232 236 240 239 240 237 241 243 241 254 260 256 263 254 272 273 279 280 288 290 298 304 308 309 300 314 316 319 321 325 325 327 329 326 328 335 331 328 333 337 338 346 352 341 348 344
233 233 233 238 238 236 235 245 242 244 249 256 258 266 266 270 264 274 280 286 282 283 302 309 311 306 316 319 318 317 326 326 326 322 333 320 321 341 325 326 348 333 336 344 350 341 348
236 238 239 240 241 241 239 243 248 246 251 260 262 266 266 266 274 274 290 283 289 293 299 308 307 310 310 322 312 321 318 319 321 317 322 321 323 337 323 327 330 339 343 343 340 353 341
236 237 241 242 243 244 243 244 248 248 260 260 264 265 265 269 273 277 278 285 290 295 294 302 302 310 310 308 310 320 316 317 319 320 321 322 326 323 327 333 331 343 331 335 339 339 345
239 241 246 247 250 252 251 249 251 256 258 258 258 261 264 273 276 279 283 287 291 295 302 300 306 301 306 307 317 316 316 323 318 318 318 323 326 335 324 327 341 330 337 333 336 336 337
239 242 245 248 263 249 250 251 250 250 254 264 267 270 273 274 278 280 284 291 294 295 290 299 301 301 304 307 309 317 312 313 317 326 316 320 318 319 338 321 327 330 345 343 359 332 354
247 248 248 249 251 251 252 254 255 258 261 262 265 268 273 276 278 280 286 288 291 293 295 297 298 303 303 303 306 308 312 309 330 312 311 325 320 317 323 334 338 325 327 334 341 341 340
250 253 250 253 256 253 254 257 260 262 264 267 270 272 275 280 283 282 281 289 291 287 291 293 292 298 297 304 307 307 322 307 317 308 315 319 305 311 308 321 320 322 325 329 333 345 339
254 252 257 259 263 261 262 261 261 266 268 269 271 272 278 282 282 277 281 280 287 288 297 302 291 295 306 301 302 302 309 306 305 307 335 316 327 301 314 319 323 323 327 328 335 332 339
260 240 256 265 257 265 265 265 268 258 263 272 267 274 272 272 278 282 282 275 279 284 286 294 293 305 296 321 302 299 326 308 316 306 310 309 314 313 296 310 315 332 322 338 332 336 342
257 263 260 254 256 260 271 268 274 282 266 270 285 280 265 278 284 287 281 284 293 286 289 297 292 296 313 293 298 299 316 311 302 324 308 318 317 316 294 321 312 323 322 326 332 328 337
239 258 258 246 261 254 262 269 268 273 275 285 276 288 282 302 287 288 287 289 284 296 310 298 301 310 304 289 309 292 304 298 308 304 305 314 309 309 315 309 302 299 321 322 325 327 338
246 266 255 250 255 252 254 254 269 279 254 280 253 271 296 300 292 290 290 276 300 292 298 282 285 277 281 284 290 310 292 316 298 301 306 310 308 315 303 310 296 330 301 314 323 332 331